DateTimeUTC,F1_A11,F1_S11,BsB_S11,BsG_S11,BsR_S11,BbsB_S11,BbsG_S11,BbsR_S11,BaB_A11,BaG_A11,BaR_A11,Tu_S11,T_S11,Uu_S11,U_S11,P_S11,T1_A11
2021-05-28T05:00:00Z,00000200,20000000,,,,,,,0000.27,-000.51,-000.08,17.4,24.2,08.2,05.4,0676.5,30.8
2021-05-28T05:01:00Z,00000200,20000000,,,,,,,0000.36,0000.44,0000.25,17.4,24.2,08.2,05.4,0676.5,30.8
2021-05-28T05:02:00Z,00000200,20000000,,,,,,,-000.33,0000.01,-000.04,17.3,24.2,08.3,05.4,0676.5,30.8
2021-05-28T05:03:00Z,00000200,60000000,,,,,,,0000.97,0000.65,0000.36,17.3,24.2,08.3,05.4,0676.5,30.8
2021-05-28T05:04:00Z,00000200,40000000,0003.11,0001.86,0001.35,0000.50,0000.36,0000.29,0000.85,0001.07,0001.09,17.5,24.0,08.2,05.5,0677.4,30.8
2021-05-28T05:05:00Z,00000200,00000000,0002.65,0002.09,0001.11,0000.18,0000.45,0000.38,0001.59,0001.20,0000.63,17.5,23.9,08.3,05.6,0677.5,30.8
2021-05-28T05:06:00Z,00000200,00000000,0002.76,0002.19,0001.07,0000.76,0000.34,0000.11,0000.85,0001.05,0000.80,17.5,23.9,08.4,05.6,0677.5,30.8
2021-05-28T05:07:00Z,00000200,00000000,0002.75,0001.88,0001.14,0000.68,0000.44,0000.23,0001.01,0000.82,0000.78,17.5,23.9,08.4,05.7,0677.5,30.8
2021-05-28T05:08:00Z,00000200,00000000,0002.77,0002.04,0000.98,0000.44,0000.25,0000.16,0001.09,0000.57,0000.49,17.6,23.9,08.5,05.7,0677.5,30.8
2021-05-28T05:09:00Z,00000200,00000000,0002.67,0001.86,0001.58,0000.24,0000.28,0000.23,0000.85,0001.13,0000.85,17.6,23.9,08.5,05.7,0677.5,30.8
2021-05-28T05:10:00Z,00000200,00000000,0002.87,0002.17,0001.35,0000.86,0000.26,0000.36,0001.14,0001.03,0000.68,17.6,24.0,08.4,05.7,0677.4,30.8
2021-05-28T05:11:00Z,00000200,00000000,0002.70,0002.00,0001.14,0000.33,0000.43,0000.14,0001.20,0001.12,0000.92,17.6,23.9,08.5,05.7,0677.4,30.8
2021-05-28T05:12:00Z,00000200,00000000,0002.66,0001.73,0001.47,0000.88,0000.30,0000.24,0001.03,0000.62,0000.48,17.6,24.0,08.5,05.8,0677.4,30.8
2021-05-28T05:13:00Z,00000200,00000000,0002.49,0002.06,0001.22,0000.50,0000.38,0000.15,0000.82,0001.01,0001.04,17.6,24.0,08.6,05.8,0677.4,30.8
2021-05-28T05:14:00Z,00000200,00000000,0003.20,0001.85,0001.11,0000.75,0000.32,0000.29,0001.42,0001.22,0000.42,17.6,24.0,08.6,05.9,0677.4,30.8
2021-05-28T05:15:00Z,00000200,00000000,0002.95,0002.12,0001.48,0000.31,0000.41,0000.20,0000.87,0000.77,0000.92,17.6,23.9,08.6,05.8,0677.4,30.8
2021-05-28T05:16:00Z,00000200,00000000,0002.12,0002.08,0001.25,0000.08,0000.29,0000.18,0001.10,0000.86,0000.61,17.6,23.9,08.7,05.9,0677.4,30.8
2021-05-28T05:17:00Z,00000200,00000000,0002.71,0001.59,0000.77,0000.39,0000.44,-000.03,0000.78,0000.95,0000.81,17.6,23.9,08.8,05.9,0677.3,30.8
2021-05-28T05:18:00Z,00000200,00000000,0002.74,0001.72,0001.33,0000.38,0000.38,0000.28,0001.15,0000.90,0000.45,17.6,23.9,08.7,05.9,0677.3,30.8
2021-05-28T05:19:00Z,00000200,00000000,0002.65,0001.69,0001.16,0000.31,0000.24,0000.31,0001.06,0001.06,0000.78,17.6,23.9,08.7,05.9,0677.3,30.8
2021-05-28T05:20:00Z,00000200,00000000,0003.68,0001.82,0001.58,0000.18,0000.46,0000.50,0000.93,0001.15,0000.86,17.6,23.9,08.7,05.9,0677.3,30.8
2021-05-28T05:21:00Z,00000200,00000000,0003.01,0001.96,0001.09,0000.58,0000.39,0000.18,0001.00,0000.64,0000.51,17.6,23.9,08.7,05.9,0677.3,30.8
2021-05-28T05:22:00Z,00000200,00000000,0002.76,0001.78,0001.17,0000.64,0000.28,0000.51,0000.70,0000.66,0000.71,17.6,23.9,08.7,05.9,0677.3,30.8
2021-05-28T05:23:00Z,00000200,00000000,0002.71,0001.72,0001.00,0000.44,0000.45,0000.26,0001.30,0001.04,0000.60,17.6,23.9,08.9,06.0,0677.2,30.8
2021-05-28T05:24:00Z,00000200,00000000,0002.63,0001.68,0001.36,0000.17,0000.30,0000.01,0001.24,0001.10,0000.49,17.6,23.9,08.7,05.9,0677.2,30.8
2021-05-28T05:25:00Z,00000200,00000000,0003.16,0001.53,0001.17,0000.14,0000.41,0000.19,0000.96,0000.66,0001.06,17.6,23.9,08.8,06.0,0677.2,30.8
2021-05-28T05:26:00Z,00000200,00000000,0002.47,0001.80,0001.28,0000.72,0000.56,0000.25,0000.83,0001.26,0000.47,17.5,23.9,08.8,06.0,0677.2,30.8
2021-05-28T05:27:00Z,00000200,00000000,0001.93,0001.64,0001.15,0000.85,0000.63,0000.08,0001.08,0000.63,0000.91,17.5,23.9,08.9,06.0,0677.2,30.8
2021-05-28T05:28:00Z,00000200,00000000,0002.79,0001.75,0001.17,0000.43,0000.56,0000.29,0000.88,0000.99,0000.59,17.5,23.9,09.0,06.1,0677.2,30.8
2021-05-28T05:29:00Z,00000200,00000000,0002.51,0001.72,0001.17,0000.55,0000.19,-000.07,0000.77,0000.73,0000.76,17.5,23.8,09.0,06.1,0677.2,30.8
2021-05-28T05:30:00Z,00000200,00000000,0002.45,0001.54,0000.98,0001.02,0000.20,0000.26,0001.12,0001.01,0000.85,17.5,23.8,09.1,06.1,0677.1,30.8
2021-05-28T05:31:00Z,00000200,00000000,0002.79,0001.68,0001.11,0000.22,0000.38,0000.22,0001.07,0001.00,0000.48,17.5,23.8,09.1,06.2,0677.2,30.8
2021-05-28T05:32:00Z,00000200,00000000,0002.54,0001.67,0001.40,0000.36,0000.67,0000.15,0000.84,0000.77,0000.78,17.5,23.8,09.2,06.3,0677.1,30.8
2021-05-28T05:33:00Z,00000200,00000000,0002.35,0001.48,0001.26,0000.40,0000.16,0000.16,0001.07,0001.03,0000.54,17.5,23.8,09.2,06.2,0677.2,30.8
2021-05-28T05:34:00Z,00000200,00000000,0001.91,0001.55,0000.88,-000.09,0000.38,0000.16,0000.85,0000.91,0000.62,17.5,23.8,09.3,06.3,0677.1,30.8
2021-05-28T05:35:00Z,00000200,00000000,0002.52,0001.46,0000.96,0000.10,0000.21,0000.34,0000.82,0000.39,0000.45,17.5,23.8,09.4,06.4,0677.1,30.8
2021-05-28T05:36:00Z,00000200,00000000,0001.72,0001.61,0000.86,0000.35,0000.17,0000.09,0001.13,0000.94,0000.84,17.5,23.8,09.4,06.4,0677.2,30.7
2021-05-28T05:37:00Z,00000200,00000000,0001.61,0001.57,0000.93,0000.37,0000.30,-000.00,0000.50,0000.51,0000.52,17.5,23.8,09.5,06.5,0677.1,30.8
2021-05-28T05:38:00Z,00000200,00000000,0002.33,0001.37,0000.95,0000.36,0000.10,0000.10,0000.92,0000.71,0000.39,17.5,23.8,09.7,06.6,0677.1,30.8
2021-05-28T05:39:00Z,00000200,00000000,0001.59,0001.73,0000.58,0000.08,0000.39,0000.08,0000.45,0000.89,0000.52,17.5,23.8,09.7,06.6,0677.1,30.8
2021-05-28T05:40:00Z,00000200,00000000,0001.57,0001.15,0000.43,0000.47,0000.08,0000.11,0000.62,0000.56,0000.71,17.5,23.8,09.8,06.7,0677.1,30.8
2021-05-28T05:41:00Z,00000200,00000000,0002.08,0001.17,0000.73,0000.47,0000.56,0000.14,0000.85,0000.80,0000.16,17.5,23.8,09.9,06.7,0677.1,30.8
2021-05-28T05:42:00Z,00000200,00000000,0001.22,0001.15,0000.76,0000.50,0000.26,0000.02,0000.81,0000.75,0000.64,17.5,23.8,09.8,06.7,0677.1,30.8
2021-05-28T05:43:00Z,00000200,00000000,0001.32,0001.22,0000.69,0000.45,0000.21,0000.26,0000.66,0000.47,0000.63,17.5,23.8,09.9,06.7,0677.1,30.8
2021-05-28T05:44:00Z,00000200,00000000,0001.45,0001.08,0000.61,0000.39,0000.21,0000.04,0000.80,0000.40,0000.45,17.5,23.8,10.0,06.8,0677.1,30.8
2021-05-28T05:45:00Z,00000200,00000000,0001.64,0000.84,0000.68,0000.26,0000.29,0000.19,0000.66,0000.88,0000.44,17.5,23.8,10.1,06.9,0677.0,30.8
2021-05-28T05:46:00Z,00000200,00000000,0001.77,0000.93,0000.47,-000.01,0000.38,0000.23,0000.53,0000.37,0000.36,17.5,23.8,10.3,07.0,0677.1,30.8
2021-05-28T05:47:00Z,00000200,00000000,0000.81,0000.80,0000.42,0000.68,0000.02,-000.04,0000.35,0000.65,0000.67,17.5,23.8,10.3,07.0,0677.1,30.8
2021-05-28T05:48:00Z,00000200,00000000,0001.72,0001.05,0000.54,-000.01,0000.06,0000.11,0000.42,0000.43,0000.11,17.5,23.8,10.4,07.0,0677.1,30.8
2021-05-28T05:49:00Z,00000200,00000000,0001.42,0000.75,0000.36,0000.00,0000.29,0000.18,0000.68,0000.20,0000.47,17.5,23.8,10.5,07.1,0677.1,30.8
2021-05-28T05:50:00Z,00000200,00000000,0001.10,0000.85,0000.42,0000.24,0000.14,-000.12,0000.72,0000.81,0000.61,17.5,23.8,10.5,07.2,0677.1,30.8
2021-05-28T05:51:00Z,00000200,00000000,0001.02,0000.77,0000.49,-000.50,0000.16,0000.01,0000.47,0000.48,0000.12,17.5,23.8,10.6,07.2,0677.0,30.8
2021-05-28T05:52:00Z,00000200,00000000,0001.07,0000.79,0000.35,0000.33,0000.22,0000.03,0000.22,0000.44,0000.13,17.5,23.7,10.6,07.3,0677.0,30.8
2021-05-28T05:53:00Z,00000200,00000000,0001.09,0000.52,0000.48,0000.50,0000.17,0000.22,0000.33,0000.22,0000.54,17.6,23.8,10.6,07.2,0677.0,30.8
2021-05-28T05:54:00Z,00000200,00000000,0000.97,0000.85,0000.58,0000.80,0000.12,0000.09,0000.59,0000.18,0000.37,17.6,23.8,10.6,07.3,0677.0,30.8
2021-05-28T05:55:00Z,00000200,00000000,0001.27,0000.42,0000.70,0000.35,0000.05,0000.19,0000.11,0000.53,0000.27,17.7,23.9,10.7,07.3,0677.0,30.8
2021-05-28T05:56:00Z,00000200,00000000,0001.00,0000.51,0000.28,0000.42,-000.06,0000.14,0000.98,0000.40,0000.19,17.7,23.9,10.7,07.3,0677.0,30.8
2021-05-28T05:57:00Z,00000200,40000000,,,,,,,-000.37,-000.08,-000.13,17.8,24.0,10.5,07.2,0676.8,30.8
2021-05-28T05:58:00Z,00000200,60000000,,,,,,,0000.27,0000.27,0000.15,17.6,24.0,10.2,06.8,0676.0,30.8
2021-05-28T05:59:00Z,00000200,20000000,,,,,,,0000.12,-000.03,-000.02,17.6,24.1,10.2,06.8,0676.0,30.8
